M I D A S
Marine Information and Data Acquisition System
Tripno 1978 of the Zeeleeuw from 2010-10-21 07:17:02 to 2010-10-21 15:28:27
Back to CruiseResearch ActivitiesStationsMapUnderway DataData graphs

EquipmentUnitsComments
TimeDGPSUTC
LatitudeDGPSDM.mWGS84
LongitudeDGPSDM.mWGS84
SpeedMeteo Stationm/sRelative wind speed
DirectionMeteo StationdegRelative wind direction
TemperatureMeteo Stationdeg CelciusAir temperature
PressureMeteo StationPaAtmospheric pressure
HumidityMeteo Station%Relative humidity
Missing or incorrect values are displayed as -999
Metereological data collected by the RV Zeeleeuw from 2010-10-21 06:05:45 to 2010-10-21 15:34:58
                                                                                    Next 1000 lines
Time Latitude Longitude Speed Direction Temperature Pressure Humidity
2010-10-21 06:05:53 51°13.663 2°55.963 1.6 6 4.5 102320 41
2010-10-21 06:05:59 51°13.664 2°55.962 1.8 9 4.5 102330 42
2010-10-21 06:06:06 51°13.664 2°55.962 0.9 351 4.5 102330 42
2010-10-21 06:06:10 51°13.664 2°55.962 1.1 343 4.5 102320 42
2010-10-21 06:06:14 51°13.664 2°55.962 0.1 352 4.5 102320 42
2010-10-21 06:06:20 51°13.664 2°55.962 0.1 349 4.5 102330 41
2010-10-21 06:06:26 51°13.663 2°55.962 -999 16 4.5 102330 41
2010-10-21 06:06:30 51°13.663 2°55.962 -999 344 4.5 102330 42
2010-10-21 06:06:34 51°13.663 2°55.962 -999 1 4.5 102330 42
2010-10-21 06:06:40 51°13.663 2°55.962 -999 357 4.5 102330 42
2010-10-21 06:06:44 51°13.663 2°55.962 1.8 11 4.5 102330 42
2010-10-21 06:06:50 51°13.663 2°55.962 0.3 23 4.5 102330 41
2010-10-21 06:06:56 51°13.663 2°55.961 0.8 2 4.5 102330 41
2010-10-21 06:07:00 51°13.663 2°55.961 1.5 6 4.5 102330 42
2010-10-21 06:07:04 51°13.664 2°55.961 0.8 32 4.5 102330 42
2010-10-21 06:07:10 51°13.663 2°55.961 0.3 19 4.5 102330 41
2010-10-21 06:07:16 51°13.663 2°55.961 0.1 284 4.5 102330 41
2010-10-21 06:07:20 51°13.663 2°55.961 1.1 353 4.5 102330 40
2010-10-21 06:07:24 51°13.663 2°55.961 0.2 351 4.5 102330 40
2010-10-21 06:07:30 51°13.663 2°55.961 0.1 358 4.5 102330 42
2010-10-21 06:07:34 51°13.663 2°55.961 0.5 1 4.5 102330 42
2010-10-21 06:07:40 51°13.663 2°55.961 2.2 2 4.6 102320 42
2010-10-21 06:07:44 51°13.663 2°55.96 1.3 30 4.6 102320 42
2010-10-21 06:07:50 51°13.663 2°55.961 1.3 28 4.6 102320 42
2010-10-21 06:07:54 51°13.663 2°55.96 0.5 4 4.6 102320 42
2010-10-21 06:08:00 51°13.663 2°55.96 0.2 347 4.6 102330 41
2010-10-21 06:08:06 51°13.663 2°55.96 1.7 355 4.6 102330 41
2010-10-21 06:08:10 51°13.663 2°55.96 1.4 350 4.6 102320 41
2010-10-21 06:08:14 51°13.663 2°55.96 1.6 356 4.6 102320 41
2010-10-21 06:08:20 51°13.663 2°55.96 2.2 344 4.6 102330 41
2010-10-21 06:08:26 51°13.663 2°55.96 0.4 30 4.6 102330 41
2010-10-21 06:08:30 51°13.663 2°55.96 0.1 -999 4.6 102320 41
2010-10-21 06:08:34 51°13.663 2°55.96 0.1 13 4.6 102320 41
2010-10-21 06:08:40 51°13.663 2°55.96 0.1 16 4.6 102330 42
2010-10-21 06:08:46 51°13.663 2°55.96 1.6 6 4.6 102330 42
2010-10-21 06:08:50 51°13.663 2°55.96 0.3 358 4.6 102330 41
2010-10-21 06:08:54 51°13.663 2°55.96 0.2 12 4.6 102330 41
2010-10-21 06:09:00 51°13.663 2°55.96 0.1 334 4.6 102330 41
2010-10-21 06:09:04 51°13.663 2°55.96 0.1 348 4.6 102330 41
2010-10-21 06:09:10 51°13.663 2°55.96 1.7 356 4.6 102330 42
2010-10-21 06:09:16 51°13.663 2°55.96 0.7 352 4.6 102330 42
2010-10-21 06:09:20 51°13.663 2°55.96 1.9 352 4.6 102330 41
2010-10-21 06:09:24 51°13.663 2°55.96 1 354 4.6 102330 41
2010-10-21 06:09:29 51°13.663 2°55.96 0.2 357 4.6 102320 41
2010-10-21 06:09:35 51°13.663 2°55.96 0.1 358 4.6 102320 41
2010-10-21 06:09:39 51°13.663 2°55.96 1.2 351 4.6 102330 41
2010-10-21 06:09:44 51°13.663 2°55.96 0.1 307 4.6 102330 41
2010-10-21 06:09:49 51°13.663 2°55.96 0.1 340 4.6 102330 41
2010-10-21 06:09:54 51°13.663 2°55.96 0.1 2 4.6 102330 41
2010-10-21 06:09:59 51°13.663 2°55.959 3.3 355 4.6 102330 40
2010-10-21 06:10:05 51°13.663 2°55.959 2.6 13 4.6 102330 40
2010-10-21 06:10:10 51°13.663 2°55.959 1.9 351 4.6 102330 41
2010-10-21 06:10:15 51°13.662 2°55.959 0.9 352 4.6 102330 41
2010-10-21 06:10:21 51°13.663 2°55.959 0.2 15 4.6 102320 41
2010-10-21 06:10:26 51°13.663 2°55.959 0.1 15 4.6 102320 41
2010-10-21 06:10:29 51°13.663 2°55.959 -999 11 4.6 102320 42
2010-10-21 06:10:34 51°13.663 2°55.959 -999 11 4.6 102320 42
2010-10-21 06:10:40 51°13.663 2°55.959 -999 8 4.6 102320 41
2010-10-21 06:10:45 51°13.663 2°55.96 -999 19 4.6 102320 41
2010-10-21 06:10:49 51°13.663 2°55.96 -999 355 4.6 102330 41
2010-10-21 06:10:54 51°13.663 2°55.959 -999 350 4.6 102330 41
2010-10-21 06:11:00 51°13.663 2°55.959 -999 355 4.6 102320 41
2010-10-21 06:11:05 51°13.663 2°55.96 1.3 347 4.6 102320 41
2010-10-21 06:11:09 51°13.663 2°55.96 0.2 355 4.6 102330 41
2010-10-21 06:11:14 51°13.663 2°55.96 0.1 353 4.6 102330 41
2010-10-21 06:11:20 51°13.663 2°55.96 -999 1 4.7 102320 41
2010-10-21 06:11:24 51°13.663 2°55.96 -999 355 4.7 102320 41
2010-10-21 06:11:30 51°13.663 2°55.96 0.1 356 4.7 102330 41
2010-10-21 06:11:34 51°13.663 2°55.96 1 15 4.7 102330 41
2010-10-21 06:11:39 51°13.662 2°55.96 0.6 357 4.6 102330 41
2010-10-21 06:11:44 51°13.662 2°55.96 0.1 355 4.6 102330 41
2010-10-21 06:11:50 51°13.662 2°55.96 0.1 359 4.6 102330 41
2010-10-21 06:11:56 51°13.662 2°55.96 0.1 339 4.6 102330 41
2010-10-21 06:12:00 51°13.663 2°55.96 -999 11 4.6 102330 41
2010-10-21 06:12:04 51°13.663 2°55.96 -999 3 4.6 102330 41
2010-10-21 06:12:10 51°13.663 2°55.96 1.9 360 4.6 102330 41
2010-10-21 06:12:16 51°13.663 2°55.96 1.3 8 4.6 102330 41
2010-10-21 06:12:20 51°13.663 2°55.96 0.2 18 4.6 102320 41
2010-10-21 06:12:25 51°13.663 2°55.96 0.1 343 4.6 102320 41
2010-10-21 06:12:30 51°13.663 2°55.96 1.2 357 4.6 102330 41
2010-10-21 06:12:35 51°13.663 2°55.96 2.1 3 4.6 102330 41
2010-10-21 06:12:40 51°13.663 2°55.96 1.8 5 4.6 102330 40
2010-10-21 06:12:45 51°13.663 2°55.96 1.7 10 4.6 102330 40
2010-10-21 06:12:49 51°13.663 2°55.96 2.1 4 4.6 102320 42
2010-10-21 06:12:55 51°13.663 2°55.96 1.7 1 4.6 102320 42
2010-10-21 06:13:00 51°13.663 2°55.96 2 3 4.6 102330 40
2010-10-21 06:13:06 51°13.663 2°55.96 2.5 2 4.6 102330 40
2010-10-21 06:13:10 51°13.663 2°55.96 2.8 357 4.6 102330 42
2010-10-21 06:13:15 51°13.662 2°55.96 3.1 360 4.6 102330 42
2010-10-21 06:13:21 51°13.662 2°55.96 3.2 3 4.5 102320 42
2010-10-21 06:13:26 51°13.662 2°55.96 2.6 7 4.5 102320 42
2010-10-21 06:13:30 51°13.662 2°55.96 1.9 355 4.5 102320 40
2010-10-21 06:13:34 51°13.662 2°55.96 1.7 360 4.5 102320 40
2010-10-21 06:13:40 51°13.662 2°55.96 1.7 357 4.5 102330 40
2010-10-21 06:13:46 51°13.662 2°55.96 1.1 2 4.5 102330 40
2010-10-21 06:13:49 51°13.662 2°55.96 0.2 1 4.5 102320 41
2010-10-21 06:13:54 51°13.662 2°55.96 0.1 351 4.5 102320 41
2010-10-21 06:14:00 51°13.662 2°55.96 -999 344 4.5 102320 41
2010-10-21 06:14:05 51°13.662 2°55.96 0.1 336 4.5 102320 41
2010-10-21 06:14:10 51°13.662 2°55.96 0.1 354 4.4 102320 41
2010-10-21 06:14:14 51°13.662 2°55.96 0.1 350 4.4 102320 41
2010-10-21 06:14:20 51°13.662 2°55.96 0.1 357 4.4 102320 41
2010-10-21 06:14:24 51°13.662 2°55.961 -999 5 4.4 102320 41
2010-10-21 06:14:30 51°13.662 2°55.961 -999 357 4.4 102320 41
2010-10-21 06:14:35 51°13.662 2°55.96 0.7 343 4.4 102320 41
2010-10-21 06:14:39 51°13.662 2°55.96 0.8 359 4.4 102320 41
2010-10-21 06:14:44 51°13.662 2°55.96 0.1 360 4.4 102320 41
2010-10-21 06:14:50 51°13.662 2°55.961 0.2 338 4.3 102320 41
2010-10-21 06:14:55 51°13.662 2°55.961 0.1 6 4.3 102320 41
2010-10-21 06:14:59 51°13.662 2°55.96 0.1 3 4.3 102320 41
2010-10-21 06:15:04 51°13.662 2°55.96 -999 347 4.3 102320 41
2010-10-21 06:15:09 51°13.662 2°55.96 -999 353 4.3 102320 41
2010-10-21 06:15:15 51°13.662 2°55.96 -999 283 4.3 102320 41
2010-10-21 06:15:19 51°13.662 2°55.961 -999 4 4.3 102320 40
2010-10-21 06:15:24 51°13.662 2°55.96 -999 359 4.3 102320 40
2010-10-21 06:15:29 51°13.662 2°55.961 0.3 9 4.3 102330 41
2010-10-21 06:15:36 51°13.662 2°55.96 1.2 7 4.3 102330 41
2010-10-21 06:15:39 51°13.662 2°55.96 0.7 357 4.3 102330 41
2010-10-21 06:15:44 51°13.662 2°55.96 1.3 341 4.3 102330 41
2010-10-21 06:15:49 51°13.662 2°55.96 0.4 344 4.3 102320 41
2010-10-21 06:15:54 51°13.662 2°55.96 1.3 355 4.3 102320 41
2010-10-21 06:16:00 51°13.662 2°55.96 0.7 355 4.3 102320 40
2010-10-21 06:16:05 51°13.662 2°55.96 0.3 343 4.3 102320 40
2010-10-21 06:16:10 51°13.662 2°55.96 0.1 8 4.3 102320 41
2010-10-21 06:16:14 51°13.662 2°55.96 0.1 348 4.3 102320 41
2010-10-21 06:16:20 51°13.662 2°55.96 0.1 8 4.3 102320 40
2010-10-21 06:16:25 51°13.662 2°55.96 0.3 360 4.3 102320 40
2010-10-21 06:16:29 51°13.662 2°55.96 1.7 359 4.3 102320 41
2010-10-21 06:16:34 51°13.662 2°55.96 0.2 10 4.3 102320 41
2010-10-21 06:16:40 51°13.662 2°55.96 0.1 344 4.3 102320 41
2010-10-21 06:16:45 51°13.662 2°55.96 -999 357 4.3 102320 41
2010-10-21 06:16:50 51°13.662 2°55.96 0.1 352 4.3 102330 42
2010-10-21 06:16:54 51°13.662 2°55.96 0.2 3 4.3 102330 42
2010-10-21 06:16:59 51°13.662 2°55.96 0.1 16 4.3 102330 41
2010-10-21 06:17:05 51°13.662 2°55.96 -999 11 4.3 102330 41
2010-10-21 06:17:10 51°13.662 2°55.96 -999 7 4.4 102330 41
2010-10-21 06:17:14 51°13.662 2°55.96 -999 358 4.4 102330 41
2010-10-21 06:17:19 51°13.662 2°55.96 -999 357 4.4 102330 41
2010-10-21 06:17:24 51°13.662 2°55.96 -999 345 4.4 102330 41
2010-10-21 06:17:29 51°13.662 2°55.96 0.2 7 4.3 102320 41
2010-10-21 06:17:35 51°13.662 2°55.96 0.1 2 4.3 102320 41
2010-10-21 06:17:39 51°13.662 2°55.96 1.4 5 4.4 102330 41
2010-10-21 06:17:44 51°13.662 2°55.96 0.2 356 4.4 102330 41
2010-10-21 06:17:49 51°13.662 2°55.96 1.4 12 4.4 102320 41
2010-10-21 06:17:55 51°13.662 2°55.96 1.1 352 4.4 102320 41
2010-10-21 06:17:59 51°13.662 2°55.96 1.9 355 4.4 102320 41
2010-10-21 06:18:04 51°13.662 2°55.96 0.2 345 4.4 102320 41
2010-10-21 06:18:09 51°13.662 2°55.96 0.1 7 4.4 102330 41
2010-10-21 06:18:15 51°13.662 2°55.96 -999 356 4.4 102330 41
2010-10-21 06:18:19 51°13.662 2°55.96 -999 346 4.4 102320 41
2010-10-21 06:18:24 51°13.662 2°55.96 -999 356 4.4 102320 41
2010-10-21 06:18:29 51°13.662 2°55.96 2.2 348 4.4 102330 41
2010-10-21 06:18:34 51°13.662 2°55.96 0.2 355 4.4 102330 41
2010-10-21 06:18:39 51°13.662 2°55.96 1.9 3 4.3 102320 41
2010-10-21 06:18:44 51°13.662 2°55.96 1.9 360 4.3 102320 41
2010-10-21 06:18:49 51°13.662 2°55.96 2.1 8 4.4 102330 41
2010-10-21 06:18:54 51°13.662 2°55.96 1.9 354 4.4 102330 41
2010-10-21 06:18:59 51°13.662 2°55.96 2 1 4.3 102330 42
2010-10-21 06:19:05 51°13.662 2°55.96 0.2 9 4.3 102330 42
2010-10-21 06:19:09 51°13.662 2°55.96 0.2 360 4.3 102330 42
2010-10-21 06:19:14 51°13.662 2°55.96 0.1 3 4.3 102330 42
2010-10-21 06:19:20 51°13.662 2°55.96 0.1 2 4.3 102330 41
2010-10-21 06:19:25 51°13.662 2°55.96 -999 349 4.3 102330 41
2010-10-21 06:19:30 51°13.662 2°55.96 0.1 348 4.3 102330 41
2010-10-21 06:19:34 51°13.662 2°55.96 1.9 1 4.3 102330 41
2010-10-21 06:19:39 51°13.662 2°55.96 0.3 2 4.3 102330 41
2010-10-21 06:19:44 51°13.662 2°55.96 0.1 3 4.3 102330 41
2010-10-21 06:19:50 51°13.662 2°55.96 0.1 353 4.3 102330 41
2010-10-21 06:19:54 51°13.662 2°55.96 1.8 360 4.3 102330 41
2010-10-21 06:19:59 51°13.662 2°55.96 2.6 6 4.3 102330 41
2010-10-21 06:20:04 51°13.662 2°55.96 2 360 4.3 102330 41
2010-10-21 06:20:10 51°13.662 2°55.96 2.9 352 4.3 102330 40
2010-10-21 06:20:15 51°13.662 2°55.96 1.4 352 4.3 102330 40
2010-10-21 06:20:19 51°13.662 2°55.96 1.6 358 4.3 102330 40
2010-10-21 06:20:24 51°13.662 2°55.96 2 4 4.3 102330 40
2010-10-21 06:20:29 51°13.662 2°55.96 1.9 19 4.3 102330 42
2010-10-21 06:20:35 51°13.662 2°55.96 0.1 11 4.3 102330 42
2010-10-21 06:20:37 51°13.662 2°55.96 0.1 4 4.3 102330 40
2010-10-21 06:20:44 51°13.662 2°55.96 0.1 4 4.3 102330 40
2010-10-21 06:20:50 51°13.662 2°55.96 0.1 4 4.3 102330 40
2010-10-21 06:20:55 51°13.662 2°55.96 0.1 4 4.3 102330 40
2010-10-21 06:20:59 51°13.662 2°55.96 0.1 4 4.3 102330 40
2010-10-21 06:21:04 51°13.662 2°55.96 0.1 4 4.3 102330 40
2010-10-21 06:21:09 51°13.662 2°55.96 -999 -999 -999 -999 -999
2010-10-21 06:21:14 51°13.662 2°55.96 -999 -999 -999 -999 -999
2010-10-21 06:21:19 51°13.662 2°55.96 -999 -999 -999 -999 -999
2010-10-21 06:21:24 51°13.662 2°55.96 -999 333 -999 -999 -999
2010-10-21 06:21:29 51°13.662 2°55.96 0.1 350 -999 -999 -999
2010-10-21 06:21:34 51°13.662 2°55.96 0.1 352 -999 -999 -999
2010-10-21 06:21:39 51°13.662 2°55.96 1.5 351 -999 -999 -999
2010-10-21 06:21:44 51°13.662 2°55.96 0.1 347 -999 -999 -999
2010-10-21 06:21:49 51°13.662 2°55.96 0.1 340 4.3 -999 26
2010-10-21 06:21:55 51°13.662 2°55.96 -999 9 4.3 -999 26
2010-10-21 06:21:59 51°13.662 2°55.96 0.1 7 4.2 -999 42
2010-10-21 06:22:04 51°13.662 2°55.961 0.2 11 4.2 -999 42
2010-10-21 06:22:09 51°13.662 2°55.96 0.1 353 4.2 102330 42
2010-10-21 06:22:14 51°13.662 2°55.96 0.4 346 4.2 102330 42
2010-10-21 06:22:19 51°13.662 2°55.96 0.1 359 4.3 102330 42
2010-10-21 06:22:24 51°13.662 2°55.96 1.8 354 4.3 102330 42
2010-10-21 06:22:29 51°13.662 2°55.96 1.2 3 4.3 102330 42
2010-10-21 06:22:34 51°13.662 2°55.96 0.3 353 4.3 102330 42
2010-10-21 06:22:40 51°13.662 2°55.96 4 356 4.2 102330 41
2010-10-21 06:22:45 51°13.662 2°55.96 2.1 4 4.2 102330 41
2010-10-21 06:22:50 51°13.662 2°55.96 1 11 4.3 102330 42
2010-10-21 06:22:55 51°13.662 2°55.96 2.3 5 4.3 102330 42
2010-10-21 06:23:00 51°13.662 2°55.96 1.7 353 4.3 102330 41
2010-10-21 06:23:04 51°13.662 2°55.96 0.1 351 4.3 102330 41
2010-10-21 06:23:09 51°13.662 2°55.96 0.1 358 4.3 102330 42
2010-10-21 06:23:14 51°13.662 2°55.96 0.1 349 4.3 102330 42
2010-10-21 06:23:19 51°13.662 2°55.96 0.1 2 4.3 102330 42
2010-10-21 06:23:24 51°13.662 2°55.96 -999 347 4.3 102330 42
2010-10-21 06:23:30 51°13.662 2°55.96 -999 349 4.4 102330 42
2010-10-21 06:23:35 51°13.662 2°55.96 -999 7 4.4 102330 42
2010-10-21 06:23:39 51°13.662 2°55.96 2.2 12 4.4 102330 40
2010-10-21 06:23:44 51°13.662 2°55.96 1.5 3 4.4 102330 40
2010-10-21 06:23:49 51°13.662 2°55.96 1.7 6 4.4 102330 41
2010-10-21 06:23:53 51°13.662 2°55.96 1.7 355 4.4 102330 41
2010-10-21 06:23:58 51°13.662 2°55.96 1.2 357 4.4 102330 41
2010-10-21 06:24:03 51°13.662 2°55.96 1.2 5 4.4 102330 41
2010-10-21 06:24:09 51°13.662 2°55.96 1.3 11 4.4 102330 40
2010-10-21 06:24:13 51°13.662 2°55.96 1.7 6 4.4 102330 40
2010-10-21 06:24:18 51°13.662 2°55.96 1.5 7 4.4 102330 42
2010-10-21 06:24:24 51°13.662 2°55.96 0.4 345 4.4 102330 42
2010-10-21 06:24:28 51°13.662 2°55.96 0.2 336 4.4 102330 40
2010-10-21 06:24:34 51°13.662 2°55.96 2.7 -999 4.4 102330 40
2010-10-21 06:24:38 51°13.662 2°55.96 3.1 2 4.4 102330 41
2010-10-21 06:24:44 51°13.662 2°55.96 2.6 3 4.4 102330 41
2010-10-21 06:24:48 51°13.662 2°55.96 2.1 359 4.4 102330 40
2010-10-21 06:24:53 51°13.662 2°55.96 1.7 339 4.4 102330 40
2010-10-21 06:24:58 51°13.662 2°55.96 0.3 351 4.4 102330 42
2010-10-21 06:25:04 51°13.662 2°55.96 0.1 359 4.4 102330 42
2010-10-21 06:25:08 51°13.662 2°55.96 0.1 360 4.4 102330 42
2010-10-21 06:25:14 51°13.662 2°55.96 -999 353 4.4 102330 42
2010-10-21 06:25:17 51°13.662 2°55.96 0.1 341 4.4 102340 41
2010-10-21 06:25:23 51°13.662 2°55.96 0.7 355 4.4 102340 41
2010-10-21 06:25:28 51°13.662 2°55.96 0.1 347 4.3 102330 40
2010-10-21 06:25:32 51°13.662 2°55.959 0.1 353 4.3 102330 40
2010-10-21 06:25:37 51°13.662 2°55.959 0.1 355 4.3 102330 42
2010-10-21 06:25:42 51°13.662 2°55.96 1.7 11 4.3 102330 42
2010-10-21 06:25:48 51°13.662 2°55.96 1.5 26 4.3 102330 41
2010-10-21 06:25:52 51°13.662 2°55.959 1.4 3 4.3 102330 41
2010-10-21 06:25:57 51°13.662 2°55.959 1.8 359 4.3 102330 41
2010-10-21 06:26:02 51°13.662 2°55.96 0.9 7 4.3 102330 41
2010-10-21 06:26:08 51°13.662 2°55.96 2.1 5 4.3 102330 40
2010-10-21 06:26:14 51°13.662 2°55.96 1.4 5 4.3 102330 40
2010-10-21 06:26:17 51°13.662 2°55.96 1.8 352 4.3 102330 39
2010-10-21 06:26:23 51°13.662 2°55.96 0.5 342 4.3 102330 39
2010-10-21 06:26:28 51°13.662 2°55.96 0.4 347 4.2 102330 41
2010-10-21 06:26:33 51°13.662 2°55.96 0.1 359 4.2 102330 41
2010-10-21 06:26:37 51°13.662 2°55.96 0.1 3 4.2 102340 40
2010-10-21 06:26:42 51°13.662 2°55.96 0.1 351 4.2 102340 40
2010-10-21 06:26:48 51°13.662 2°55.96 2.5 350 4.2 102330 40
2010-10-21 06:26:52 51°13.662 2°55.96 0.9 341 4.2 102330 40
2010-10-21 06:26:58 51°13.662 2°55.96 1.3 358 4.2 102330 41
2010-10-21 06:27:02 51°13.662 2°55.96 0.3 7 4.2 102330 41
2010-10-21 06:27:07 51°13.662 2°55.96 0.1 350 4.2 102330 41
2010-10-21 06:27:12 51°13.662 2°55.96 1.8 342 4.2 102330 41
2010-10-21 06:27:17 51°13.662 2°55.96 2 352 4.2 102330 42
2010-10-21 06:27:22 51°13.662 2°55.96 4.1 348 4.2 102330 42
2010-10-21 06:27:28 51°13.662 2°55.96 3 5 4.2 102330 41
2010-10-21 06:27:33 51°13.662 2°55.96 3.4 356 4.2 102330 41
2010-10-21 06:27:37 51°13.662 2°55.96 2.7 358 4.2 102330 41
2010-10-21 06:27:42 51°13.662 2°55.96 2.7 350 4.2 102330 41
2010-10-21 06:27:47 51°13.662 2°55.96 3.5 350 4.2 102330 41
2010-10-21 06:27:53 51°13.662 2°55.96 2.8 350 4.2 102330 41
2010-10-21 06:27:57 51°13.662 2°55.96 3.7 359 4.1 102330 40
2010-10-21 06:28:02 51°13.662 2°55.96 2.3 2 4.1 102330 40
2010-10-21 06:28:08 51°13.662 2°55.96 3.1 353 4.1 102330 40
2010-10-21 06:28:12 51°13.662 2°55.96 3.1 349 4.1 102330 40
2010-10-21 06:28:18 51°13.662 2°55.96 2.6 352 4.1 102330 40
2010-10-21 06:28:22 51°13.662 2°55.96 2.9 7 4.1 102330 40
2010-10-21 06:28:27 51°13.662 2°55.96 2.9 354 4.1 102330 41
2010-10-21 06:28:33 51°13.662 2°55.96 2.7 2 4.1 102330 41
2010-10-21 06:28:37 51°13.662 2°55.96 2.5 4 4 102330 40
2010-10-21 06:28:42 51°13.662 2°55.96 2.5 1 4 102330 40
2010-10-21 06:28:47 51°13.662 2°55.96 1.9 14 4 102340 41
2010-10-21 06:28:52 51°13.662 2°55.96 0.2 347 4 102340 41
2010-10-21 06:28:57 51°13.662 2°55.96 1.7 346 4 102330 39
2010-10-21 06:29:02 51°13.662 2°55.96 1.7 355 4 102330 39
2010-10-21 06:29:07 51°13.662 2°55.96 0.9 355 4 102340 40
2010-10-21 06:29:12 51°13.662 2°55.96 2.8 350 4 102340 40
2010-10-21 06:29:17 51°13.662 2°55.96 1.8 358 4 102330 40
2010-10-21 06:29:22 51°13.662 2°55.96 0.1 350 4 102330 40
2010-10-21 06:29:26 51°13.662 2°55.959 2 350 3.9 102330 40
2010-10-21 06:29:31 51°13.662 2°55.959 2.7 8 3.9 102330 40
2010-10-21 06:29:36 51°13.662 2°55.959 3 3 3.9 102330 40
2010-10-21 06:29:42 51°13.662 2°55.96 1.6 355 3.9 102330 40
2010-10-21 06:29:46 51°13.662 2°55.96 1.5 347 3.9 102330 40
2010-10-21 06:29:51 51°13.662 2°55.96 0.2 355 3.9 102330 40
2010-10-21 06:29:56 51°13.662 2°55.96 0.1 1 3.9 102330 40
2010-10-21 06:30:02 51°13.662 2°55.96 2.5 19 3.9 102330 40
2010-10-21 06:30:06 51°13.662 2°55.96 1.8 358 3.9 102340 41
2010-10-21 06:30:11 51°13.662 2°55.96 1 356 3.9 102340 41
2010-10-21 06:30:16 51°13.662 2°55.96 0.2 2 3.9 102340 41
2010-10-21 06:30:22 51°13.662 2°55.96 0.1 348 3.9 102340 41
2010-10-21 06:30:26 51°13.662 2°55.96 -999 5 3.9 102340 40
2010-10-21 06:30:32 51°13.662 2°55.96 -999 349 3.9 102340 40
2010-10-21 06:30:37 51°13.662 2°55.96 -999 10 3.8 102340 40
2010-10-21 06:30:42 51°13.662 2°55.96 -999 356 3.8 102340 40
2010-10-21 06:30:46 51°13.662 2°55.96 -999 4 3.8 102340 40
2010-10-21 06:30:51 51°13.662 2°55.96 -999 359 3.8 102340 40
2010-10-21 06:30:56 51°13.662 2°55.96 -999 352 3.8 102340 41
2010-10-21 06:31:02 51°13.662 2°55.96 -999 329 3.8 102340 41
2010-10-21 06:31:06 51°13.662 2°55.96 0.4 322 3.8 102340 41
2010-10-21 06:31:12 51°13.662 2°55.96 0.2 352 3.8 102340 41
2010-10-21 06:31:17 51°13.662 2°55.96 3.7 350 3.8 102340 41
2010-10-21 06:31:22 51°13.663 2°55.96 1.2 360 3.8 102340 41
2010-10-21 06:31:26 51°13.662 2°55.96 0.4 22 3.8 102340 40
2010-10-21 06:31:32 51°13.662 2°55.96 1 25 3.8 102340 40
2010-10-21 06:31:37 51°13.662 2°55.96 0.3 6 3.8 102330 40
2010-10-21 06:31:42 51°13.662 2°55.96 0.2 349 3.8 102330 40
2010-10-21 06:31:46 51°13.662 2°55.96 0.1 358 3.8 102340 41
2010-10-21 06:31:52 51°13.662 2°55.96 0.1 337 3.8 102340 41
2010-10-21 06:31:57 51°13.662 2°55.96 0.2 345 3.8 102340 40
2010-10-21 06:32:02 51°13.662 2°55.96 1.5 358 3.8 102340 40
2010-10-21 06:32:06 51°13.662 2°55.96 2.8 1 3.8 102340 41
2010-10-21 06:32:12 51°13.662 2°55.96 2.2 12 3.8 102340 41
2010-10-21 06:32:17 51°13.662 2°55.96 2.1 5 3.8 102330 41
2010-10-21 06:32:22 51°13.662 2°55.96 1.7 360 3.8 102330 41
2010-10-21 06:32:26 51°13.662 2°55.96 1.4 345 3.8 102340 41
2010-10-21 06:32:32 51°13.662 2°55.96 0.1 346 3.8 102340 41
2010-10-21 06:32:37 51°13.662 2°55.96 0.1 9 3.8 102340 41
2010-10-21 06:32:42 51°13.662 2°55.96 0.1 12 3.8 102340 41
2010-10-21 06:32:46 51°13.662 2°55.96 0.1 1 3.8 102340 41
2010-10-21 06:32:51 51°13.662 2°55.96 2.1 -999 3.8 102340 41
2010-10-21 06:32:56 51°13.662 2°55.96 2.2 3 3.8 102340 41
2010-10-21 06:33:02 51°13.662 2°55.96 2 356 3.8 102340 41
2010-10-21 06:33:06 51°13.662 2°55.96 1.5 352 3.8 102340 40
2010-10-21 06:33:12 51°13.662 2°55.96 2.9 339 3.8 102340 40
2010-10-21 06:33:16 51°13.662 2°55.96 2.8 352 3.8 102340 40
2010-10-21 06:33:22 51°13.662 2°55.96 3.2 360 3.8 102340 40
2010-10-21 06:33:26 51°13.662 2°55.96 3.9 5 3.8 102330 40
2010-10-21 06:33:31 51°13.663 2°55.96 2.3 18 3.8 102330 40
2010-10-21 06:33:37 51°13.663 2°55.96 2.4 18 3.8 102330 41
2010-10-21 06:33:42 51°13.663 2°55.96 2.6 26 3.8 102330 41
2010-10-21 06:33:46 51°13.663 2°55.96 1.9 24 3.7 102340 41
2010-10-21 06:33:51 51°13.663 2°55.96 1 14 3.7 102340 41
2010-10-21 06:33:57 51°13.663 2°55.96 0.9 11 3.7 102340 40
2010-10-21 06:34:02 51°13.663 2°55.96 0.2 25 3.7 102340 40
2010-10-21 06:34:06 51°13.663 2°55.96 0.1 24 3.7 102340 40
2010-10-21 06:34:12 51°13.662 2°55.961 0.1 34 3.7 102340 40
2010-10-21 06:34:16 51°13.662 2°55.961 0.1 27 3.7 102340 39
2010-10-21 06:34:22 51°13.662 2°55.961 0.1 25 3.7 102340 39
2010-10-21 06:34:26 51°13.662 2°55.961 0.1 9 3.7 102340 41
2010-10-21 06:34:32 51°13.662 2°55.961 -999 8 3.7 102340 41
2010-10-21 06:34:37 51°13.662 2°55.962 -999 22 3.7 102340 41
2010-10-21 06:34:42 51°13.662 2°55.962 1.5 27 3.7 102340 41
2010-10-21 06:34:46 51°13.662 2°55.962 0.9 34 3.8 102340 41
2010-10-21 06:34:51 51°13.662 2°55.962 0.1 16 3.8 102340 41
2010-10-21 06:34:56 51°13.662 2°55.962 0.1 20 3.7 102340 41
2010-10-21 06:35:02 51°13.662 2°55.963 -999 12 3.7 102340 41
2010-10-21 06:35:06 51°13.662 2°55.963 -999 17 3.8 102340 41
2010-10-21 06:35:11 51°13.662 2°55.962 2.5 4 3.8 102340 41
2010-10-21 06:35:16 51°13.662 2°55.962 3.2 8 3.8 102340 41
2010-10-21 06:35:22 51°13.662 2°55.962 3 14 3.8 102340 41
2010-10-21 06:35:26 51°13.662 2°55.962 2.4 9 3.8 102340 40
2010-10-21 06:35:31 51°13.662 2°55.962 2.4 17 3.8 102340 40
2010-10-21 06:35:36 51°13.662 2°55.962 1.9 10 3.8 102340 41
2010-10-21 06:35:42 51°13.662 2°55.962 3.3 17 3.8 102340 41
2010-10-21 06:35:46 51°13.662 2°55.962 2.8 6 3.7 102340 40
2010-10-21 06:35:51 51°13.662 2°55.962 3.8 10 3.7 102340 40
2010-10-21 06:35:56 51°13.663 2°55.961 2.9 8 3.8 102340 40
2010-10-21 06:36:02 51°13.663 2°55.961 3.1 21 3.8 102340 40
2010-10-21 06:36:06 51°13.663 2°55.961 2.4 17 3.8 102340 40
2010-10-21 06:36:12 51°13.663 2°55.961 2.1 9 3.8 102340 40
2010-10-21 06:36:16 51°13.663 2°55.961 2.9 6 3.7 102340 41
2010-10-21 06:36:22 51°13.663 2°55.961 3 21 3.7 102340 41
2010-10-21 06:36:26 51°13.663 2°55.961 2.9 18 3.7 102340 41
2010-10-21 06:36:32 51°13.663 2°55.96 2.4 12 3.7 102340 41
2010-10-21 06:36:36 51°13.663 2°55.96 2.3 10 3.7 102340 40
2010-10-21 06:36:42 51°13.663 2°55.96 2.5 3 3.7 102340 40
2010-10-21 06:36:46 51°13.664 2°55.96 2.7 11 3.7 102340 40
2010-10-21 06:36:51 51°13.663 2°55.96 2.9 14 3.7 102340 40
2010-10-21 06:36:56 51°13.663 2°55.961 2 5 3.7 102340 40
2010-10-21 06:37:02 51°13.663 2°55.961 1.2 13 3.7 102340 40
2010-10-21 06:37:06 51°13.663 2°55.961 0.2 21 3.7 102340 41
2010-10-21 06:37:12 51°13.663 2°55.961 2.5 8 3.7 102340 41
2010-10-21 06:37:17 51°13.663 2°55.961 3.7 14 3.7 102340 41
2010-10-21 06:37:22 51°13.663 2°55.961 2.3 16 3.7 102340 41
2010-10-21 06:37:26 51°13.663 2°55.961 2.3 16 3.7 102340 40
2010-10-21 06:37:32 51°13.663 2°55.961 3.3 5 3.7 102340 40
2010-10-21 06:37:37 51°13.663 2°55.961 1.9 5 3.7 102340 40
2010-10-21 06:37:42 51°13.662 2°55.961 0.8 3 3.7 102340 40
2010-10-21 06:37:46 51°13.662 2°55.961 0.2 10 3.7 102340 40
2010-10-21 06:37:51 51°13.662 2°55.961 1.4 7 3.7 102340 40
2010-10-21 06:37:56 51°13.662 2°55.961 2.8 11 3.7 102340 41
2010-10-21 06:38:02 51°13.662 2°55.961 3.1 16 3.7 102340 41
2010-10-21 06:38:06 51°13.662 2°55.961 1.9 -999 3.7 102340 40
2010-10-21 06:38:11 51°13.662 2°55.961 2.8 9 3.7 102340 40
2010-10-21 06:38:16 51°13.663 2°55.961 2.4 13 3.7 102340 40
2010-10-21 06:38:22 51°13.663 2°55.961 1.4 2 3.7 102340 40
2010-10-21 06:38:26 51°13.663 2°55.961 3.9 10 3.7 102340 40
2010-10-21 06:38:32 51°13.663 2°55.96 3.1 22 3.7 102340 40
2010-10-21 06:38:36 51°13.663 2°55.96 3.4 15 3.7 102340 40
2010-10-21 06:38:42 51°13.663 2°55.96 2.3 18 3.7 102340 40
2010-10-21 06:38:46 51°13.663 2°55.961 3.1 10 3.7 102340 40
2010-10-21 06:38:52 51°13.662 2°55.961 3 13 3.7 102340 40
2010-10-21 06:38:57 51°13.662 2°55.961 2 10 3.7 102340 40
2010-10-21 06:39:02 51°13.662 2°55.961 3.1 10 3.7 102340 40
2010-10-21 06:39:06 51°13.662 2°55.962 3.1 12 3.7 102340 41
2010-10-21 06:39:11 51°13.662 2°55.962 3.3 11 3.7 102340 41
2010-10-21 06:39:17 51°13.661 2°55.962 2 7 3.7 102340 40
2010-10-21 06:39:22 51°13.661 2°55.962 1.9 16 3.7 102340 40
2010-10-21 06:39:26 51°13.662 2°55.962 2.1 11 3.6 102340 41
2010-10-21 06:39:31 51°13.662 2°55.962 1.8 10 3.6 102340 41
2010-10-21 06:39:36 51°13.662 2°55.962 1.4 12 3.6 102340 39
2010-10-21 06:39:42 51°13.661 2°55.962 1.7 15 3.6 102340 39
2010-10-21 06:39:46 51°13.662 2°55.962 2.3 358 3.6 102340 40
2010-10-21 06:39:51 51°13.662 2°55.962 0.6 6 3.6 102340 40
2010-10-21 06:39:56 51°13.662 2°55.961 0.1 5 3.6 102340 41
2010-10-21 06:40:02 51°13.662 2°55.961 1.9 4 3.6 102340 41
2010-10-21 06:40:06 51°13.663 2°55.961 3.2 6 3.6 102340 41
2010-10-21 06:40:11 51°13.663 2°55.961 2.6 -999 3.6 102340 41
2010-10-21 06:40:16 51°13.663 2°55.96 3.5 6 3.6 102340 40
2010-10-21 06:40:22 51°13.663 2°55.96 3.2 6 3.6 102340 40
2010-10-21 06:40:26 51°13.663 2°55.96 2.2 9 3.6 102340 40
2010-10-21 06:40:32 51°13.663 2°55.961 1.9 8 3.6 102340 40
2010-10-21 06:40:36 51°13.662 2°55.961 2.3 2 3.6 102340 40
2010-10-21 06:40:42 51°13.662 2°55.961 2.4 11 3.6 102340 40
2010-10-21 06:40:46 51°13.662 2°55.961 3.3 12 3.6 102340 39
2010-10-21 06:40:52 51°13.662 2°55.961 3.6 11 3.6 102340 39
2010-10-21 06:40:56 51°13.662 2°55.961 2.6 8 3.6 102340 41
2010-10-21 06:41:02 51°13.662 2°55.961 3.5 17 3.6 102340 41
2010-10-21 06:41:06 51°13.662 2°55.961 2.1 18 3.6 102340 40
2010-10-21 06:41:12 51°13.662 2°55.961 1.4 16 3.6 102340 40
2010-10-21 06:41:17 51°13.662 2°55.962 0.4 18 3.6 102340 41
2010-10-21 06:41:22 51°13.662 2°55.962 1.3 356 3.6 102340 41
2010-10-21 06:41:26 51°13.662 2°55.962 2.1 3 3.6 102350 40
2010-10-21 06:41:31 51°13.662 2°55.962 3.3 351 3.6 102350 40
2010-10-21 06:41:36 51°13.662 2°55.962 4.1 5 3.6 102340 40
2010-10-21 06:41:42 51°13.662 2°55.961 3.1 10 3.6 102340 40
2010-10-21 06:41:46 51°13.662 2°55.961 2.6 360 3.6 102340 41
2010-10-21 06:41:51 51°13.662 2°55.961 0.8 -999 3.6 102340 41
2010-10-21 06:41:56 51°13.662 2°55.961 0.2 10 3.6 102340 41
2010-10-21 06:42:02 51°13.662 2°55.961 0.2 7 3.6 102340 41
2010-10-21 06:42:06 51°13.662 2°55.961 0.1 356 3.6 102340 41
2010-10-21 06:42:11 51°13.662 2°55.961 1.7 7 3.6 102340 41
2010-10-21 06:42:16 51°13.662 2°55.961 2 22 3.6 102340 39
2010-10-21 06:42:22 51°13.662 2°55.961 2.6 11 3.6 102340 39
2010-10-21 06:42:26 51°13.662 2°55.961 2 4 3.7 102350 41
2010-10-21 06:42:31 51°13.662 2°55.961 0.3 17 3.7 102350 41
2010-10-21 06:42:36 51°13.662 2°55.961 0.1 13 3.6 102350 41
2010-10-21 06:42:42 51°13.662 2°55.961 0.1 -999 3.6 102350 41
2010-10-21 06:42:46 51°13.662 2°55.961 1.9 360 3.7 102350 40
2010-10-21 06:42:52 51°13.662 2°55.961 1.7 12 3.7 102350 40
2010-10-21 06:42:57 51°13.662 2°55.961 2 6 3.6 102340 40
2010-10-21 06:43:02 51°13.662 2°55.961 1.3 16 3.6 102340 40
2010-10-21 06:43:06 51°13.662 2°55.961 1.9 14 3.6 102350 40
2010-10-21 06:43:12 51°13.662 2°55.961 0.4 5 3.6 102350 40
2010-10-21 06:43:16 51°13.662 2°55.961 1.5 5 3.6 102340 41
2010-10-21 06:43:22 51°13.662 2°55.961 1.2 2 3.6 102340 41
2010-10-21 06:43:26 51°13.662 2°55.961 0.2 355 3.6 102340 41
2010-10-21 06:43:31 51°13.662 2°55.961 0.1 354 3.6 102340 41
2010-10-21 06:43:36 51°13.662 2°55.961 1.3 -999 3.6 102340 41
2010-10-21 06:43:42 51°13.662 2°55.961 1.8 356 3.6 102340 41
2010-10-21 06:43:46 51°13.662 2°55.96 2.3 12 3.6 102340 40
2010-10-21 06:43:51 51°13.662 2°55.96 2.1 14 3.6 102340 40
2010-10-21 06:43:56 51°13.662 2°55.96 2.4 9 3.6 102340 40
2010-10-21 06:44:02 51°13.662 2°55.96 1.9 7 3.6 102340 40
2010-10-21 06:44:06 51°13.662 2°55.96 0.7 11 3.6 102340 41
2010-10-21 06:44:11 51°13.662 2°55.96 0.2 6 3.6 102340 41
2010-10-21 06:44:16 51°13.662 2°55.961 1.5 8 3.6 102350 40
2010-10-21 06:44:22 51°13.662 2°55.961 2 354 3.6 102350 40
2010-10-21 06:44:26 51°13.662 2°55.961 1.3 356 3.6 102340 40
2010-10-21 06:44:31 51°13.662 2°55.961 2.8 10 3.6 102340 40
2010-10-21 06:44:36 51°13.662 2°55.961 3 6 3.6 102340 41
2010-10-21 06:44:42 51°13.662 2°55.961 3.1 7 3.6 102340 41
2010-10-21 06:44:46 51°13.662 2°55.961 3 14 3.7 102350 42
2010-10-21 06:44:52 51°13.662 2°55.961 2.2 7 3.7 102350 42
2010-10-21 06:44:56 51°13.662 2°55.961 1.7 11 3.7 102340 39
2010-10-21 06:45:02 51°13.662 2°55.961 1.5 4 3.7 102340 39
2010-10-21 06:45:06 51°13.662 2°55.961 0.7 8 3.6 102340 40
2010-10-21 06:45:12 51°13.662 2°55.961 0.6 4 3.6 102340 40
2010-10-21 06:45:17 51°13.662 2°55.96 2.1 8 3.6 102340 40
2010-10-21 06:45:22 51°13.662 2°55.96 2 13 3.6 102340 40
2010-10-21 06:45:26 51°13.662 2°55.96 2.2 11 3.6 102350 40
2010-10-21 06:45:32 51°13.662 2°55.96 2.4 18 3.6 102350 40
2010-10-21 06:45:36 51°13.662 2°55.96 2.7 20 3.6 102350 40
2010-10-21 06:45:42 51°13.662 2°55.96 2.2 13 3.6 102350 40
2010-10-21 06:45:46 51°13.662 2°55.96 2.3 10 3.6 102350 41
2010-10-21 06:45:52 51°13.662 2°55.96 0.9 353 3.6 102350 41
2010-10-21 06:45:56 51°13.662 2°55.96 0.2 2 3.6 102350 39
2010-10-21 06:46:02 51°13.662 2°55.96 0.1 358 3.6 102350 39
2010-10-21 06:46:06 51°13.662 2°55.96 0.1 353 3.6 102350 39
2010-10-21 06:46:11 51°13.662 2°55.96 0.8 351 3.6 102350 39
2010-10-21 06:46:16 51°13.662 2°55.96 1 5 3.5 102350 40
2010-10-21 06:46:22 51°13.662 2°55.96 0.1 15 3.5 102350 40
2010-10-21 06:46:26 51°13.662 2°55.96 0.1 356 3.5 102350 40
2010-10-21 06:46:31 51°13.662 2°55.96 0.1 9 3.5 102350 40
2010-10-21 06:46:36 51°13.662 2°55.96 0.1 16 3.5 102350 40
2010-10-21 06:46:42 51°13.662 2°55.96 0.7 14 3.5 102350 40
2010-10-21 06:46:47 51°13.662 2°55.96 0.2 358 3.5 102350 40
2010-10-21 06:46:52 51°13.662 2°55.96 0.1 2 3.5 102350 40
2010-10-21 06:46:56 51°13.662 2°55.96 0.1 8 3.5 102350 40
2010-10-21 06:47:02 51°13.662 2°55.96 0.1 11 3.5 102350 40
2010-10-21 06:47:06 51°13.663 2°55.959 0.1 354 3.5 102350 40
2010-10-21 06:47:11 51°13.663 2°55.959 -999 350 3.5 102350 40
2010-10-21 06:47:17 51°13.663 2°55.959 0.1 -999 3.5 102350 40
2010-10-21 06:47:22 51°13.663 2°55.959 0.3 355 3.5 102350 40
2010-10-21 06:47:26 51°13.663 2°55.959 0.1 3 3.5 102350 40
2010-10-21 06:47:31 51°13.663 2°55.959 1.4 6 3.5 102350 40
2010-10-21 06:47:36 51°13.663 2°55.959 1.6 9 3.5 102350 39
2010-10-21 06:47:42 51°13.663 2°55.96 1 15 3.5 102350 39
2010-10-21 06:47:46 51°13.663 2°55.96 1 15 3.5 102350 40
2010-10-21 06:47:52 51°13.663 2°55.96 0.1 14 3.5 102350 40
2010-10-21 06:47:56 51°13.663 2°55.96 0.1 5 3.5 102350 40
2010-10-21 06:48:02 51°13.663 2°55.96 0.1 12 3.5 102350 40
2010-10-21 06:48:06 51°13.662 2°55.96 1.1 10 3.5 102350 40
2010-10-21 06:48:11 51°13.663 2°55.96 2 18 3.5 102350 40
2010-10-21 06:48:16 51°13.662 2°55.96 2.2 25 3.5 102350 40
2010-10-21 06:48:22 51°13.662 2°55.96 2.2 11 3.5 102350 40
2010-10-21 06:48:26 51°13.662 2°55.959 1.1 13 3.5 102350 40
2010-10-21 06:48:31 51°13.663 2°55.959 0.1 3 3.5 102350 40
2010-10-21 06:48:36 51°13.662 2°55.959 0.1 14 3.5 102350 39
2010-10-21 06:48:42 51°13.662 2°55.96 -999 354 3.5 102350 39
2010-10-21 06:48:46 51°13.661 2°55.96 -999 3 3.5 102350 40
2010-10-21 06:48:51 51°13.661 2°55.96 0.2 3 3.5 102350 40
2010-10-21 06:48:57 51°13.661 2°55.96 1.9 12 3.5 102350 40
2010-10-21 06:49:02 51°13.661 2°55.96 0.2 6 3.5 102350 40
2010-10-21 06:49:06 51°13.661 2°55.96 0.1 6 3.4 102350 40
2010-10-21 06:49:11 51°13.662 2°55.96 1.4 11 3.4 102350 40
2010-10-21 06:49:17 51°13.662 2°55.96 2.9 10 3.4 102350 40
2010-10-21 06:49:22 51°13.662 2°55.96 2.6 8 3.4 102350 40
2010-10-21 06:49:26 51°13.662 2°55.96 2.1 9 3.4 102350 40
2010-10-21 06:49:32 51°13.662 2°55.96 0.3 26 3.4 102350 40
2010-10-21 06:49:37 51°13.662 2°55.96 1.4 28 3.4 102350 40
2010-10-21 06:49:42 51°13.662 2°55.96 1.9 16 3.4 102350 40
2010-10-21 06:49:46 51°13.662 2°55.96 1.6 13 3.4 102350 41
2010-10-21 06:49:52 51°13.662 2°55.96 0.2 16 3.4 102350 41
2010-10-21 06:49:57 51°13.662 2°55.96 0.1 13 3.4 102350 40
2010-10-21 06:50:02 51°13.662 2°55.96 1.7 15 3.4 102350 40
2010-10-21 06:50:06 51°13.662 2°55.96 1.1 12 3.4 102350 39
2010-10-21 06:50:11 51°13.662 2°55.96 1.9 7 3.4 102350 39
2010-10-21 06:50:16 51°13.663 2°55.96 2.5 15 3.4 102350 39
2010-10-21 06:50:22 51°13.663 2°55.96 2.5 4 3.4 102350 39
2010-10-21 06:50:26 51°13.663 2°55.96 2.2 16 3.4 102350 39
2010-10-21 06:50:30 51°13.662 2°55.96 2.4 6 3.4 102350 39
2010-10-21 06:50:37 51°13.662 2°55.96 1.7 23 3.4 102350 40
2010-10-21 06:50:42 51°13.662 2°55.96 1.9 24 3.4 102350 40
2010-10-21 06:50:46 51°13.662 2°55.96 1.3 22 3.3 102350 41
2010-10-21 06:50:51 51°13.662 2°55.96 1.6 35 3.3 102350 41
2010-10-21 06:50:56 51°13.663 2°55.96 1.1 29 3.3 102350 39
2010-10-21 06:51:02 51°13.663 2°55.96 0.9 22 3.3 102350 39
2010-10-21 06:51:06 51°13.663 2°55.96 0.6 22 3.3 102350 40
2010-10-21 06:51:11 51°13.663 2°55.96 0.1 4 3.3 102350 40
2010-10-21 06:51:16 51°13.663 2°55.96 0.1 7 3.3 102350 40
2010-10-21 06:51:22 51°13.663 2°55.96 -999 10 3.3 102350 40
2010-10-21 06:51:26 51°13.663 2°55.96 -999 14 3.3 102350 40
2010-10-21 06:51:31 51°13.663 2°55.96 -999 19 3.3 102350 40
2010-10-21 06:51:37 51°13.663 2°55.96 -999 6 3.3 102350 40
2010-10-21 06:51:42 51°13.663 2°55.96 0.1 3 3.3 102350 40
2010-10-21 06:51:46 51°13.663 2°55.96 1.9 17 3.3 102350 40
2010-10-21 06:51:51 51°13.663 2°55.96 1.9 9 3.3 102350 40
2010-10-21 06:51:56 51°13.663 2°55.96 1.9 6 3.3 102350 40
2010-10-21 06:52:02 51°13.663 2°55.96 1.5 12 3.3 102350 40
2010-10-21 06:52:06 51°13.663 2°55.96 1.1 7 3.3 102350 41
2010-10-21 06:52:12 51°13.663 2°55.96 0.4 10 3.3 102350 41
2010-10-21 06:52:16 51°13.663 2°55.96 0.6 14 3.3 102350 40
2010-10-21 06:52:22 51°13.663 2°55.96 0.1 10 3.3 102350 40
2010-10-21 06:52:26 51°13.663 2°55.96 0.9 8 3.3 102340 40
2010-10-21 06:52:32 51°13.663 2°55.96 0.2 15 3.3 102340 40
2010-10-21 06:52:37 51°13.663 2°55.96 0.2 12 3.3 102340 40
2010-10-21 06:52:42 51°13.663 2°55.96 0.1 18 3.3 102340 40
2010-10-21 06:52:46 51°13.663 2°55.96 0.3 7 3.3 102350 40
2010-10-21 06:52:51 51°13.663 2°55.96 1.7 18 3.3 102350 40
2010-10-21 06:52:57 51°13.663 2°55.96 1.7 19 3.3 102350 39
2010-10-21 06:53:02 51°13.663 2°55.96 1.8 22 3.3 102350 39
2010-10-21 06:53:06 51°13.663 2°55.96 2.2 21 3.3 102350 40
2010-10-21 06:53:11 51°13.663 2°55.96 2.8 18 3.3 102350 40
2010-10-21 06:53:16 51°13.663 2°55.96 2.7 19 3.3 102350 41
2010-10-21 06:53:22 51°13.663 2°55.96 2.3 11 3.3 102350 41
2010-10-21 06:53:26 51°13.663 2°55.96 2.2 4 3.3 102350 40
2010-10-21 06:53:32 51°13.663 2°55.96 1 359 3.3 102350 40
2010-10-21 06:53:37 51°13.663 2°55.96 1.7 6 3.3 102350 40
2010-10-21 06:53:42 51°13.663 2°55.96 2.1 13 3.3 102350 40
2010-10-21 06:53:47 51°13.663 2°55.96 2.2 14 3.3 102350 40
2010-10-21 06:53:52 51°13.663 2°55.96 1.9 14 3.3 102350 40
2010-10-21 06:53:57 51°13.663 2°55.96 2.4 13 3.3 102350 40
2010-10-21 06:54:02 51°13.663 2°55.96 1.7 15 3.3 102350 40
2010-10-21 06:54:06 51°13.663 2°55.96 2.1 16 3.3 102350 40
2010-10-21 06:54:11 51°13.663 2°55.96 2.6 18 3.3 102350 40
2010-10-21 06:54:16 51°13.663 2°55.96 2.8 14 3.3 102350 39
2010-10-21 06:54:22 51°13.663 2°55.96 3 15 3.3 102350 39
2010-10-21 06:54:26 51°13.663 2°55.96 2.5 11 3.3 102350 40
2010-10-21 06:54:32 51°13.663 2°55.96 2.3 12 3.3 102350 40
2010-10-21 06:54:37 51°13.663 2°55.96 2.5 16 3.3 102350 40
2010-10-21 06:54:42 51°13.663 2°55.96 2.2 9 3.3 102350 40
2010-10-21 06:54:46 51°13.663 2°55.96 3.2 20 3.3 102350 40
2010-10-21 06:54:52 51°13.663 2°55.96 2.7 14 3.3 102350 40
2010-10-21 06:54:56 51°13.663 2°55.96 2.4 8 3.2 102350 40
2010-10-21 06:55:02 51°13.663 2°55.96 4.2 14 3.2 102350 40
2010-10-21 06:55:06 51°13.663 2°55.96 3.5 12 3.3 102350 39
2010-10-21 06:55:11 51°13.663 2°55.96 2.2 14 3.3 102350 39
2010-10-21 06:55:16 51°13.663 2°55.96 2.2 2 3.2 102350 40
2010-10-21 06:55:22 51°13.663 2°55.96 2.4 11 3.2 102350 40
2010-10-21 06:55:26 51°13.663 2°55.96 2.8 14 3.2 102350 40
2010-10-21 06:55:32 51°13.663 2°55.96 1.4 4 3.2 102350 40
2010-10-21 06:55:37 51°13.663 2°55.96 0.7 11 3.2 102350 38
2010-10-21 06:55:42 51°13.663 2°55.96 2.2 16 3.2 102350 38
2010-10-21 06:55:46 51°13.662 2°55.96 2 14 3.2 102350 40
2010-10-21 06:55:52 51°13.662 2°55.96 1.6 8 3.2 102350 40
2010-10-21 06:55:57 51°13.662 2°55.96 1.2 354 3.2 102350 41
2010-10-21 06:56:02 51°13.661 2°55.961 0.5 7 3.2 102350 41
2010-10-21 06:56:07 51°13.661 2°55.961 2.4 5 3.2 102350 40
2010-10-21 06:56:12 51°13.661 2°55.961 1.9 9 3.2 102350 40
2010-10-21 06:56:17 51°13.66 2°55.96 0.8 32 3.2 102350 39
2010-10-21 06:56:22 51°13.661 2°55.96 0.1 13 3.2 102350 39
2010-10-21 06:56:26 51°13.661 2°55.96 0.1 20 3.2 102350 40
2010-10-21 06:56:32 51°13.661 2°55.96 0.9 15 3.2 102350 40
2010-10-21 06:56:36 51°13.661 2°55.961 1.2 17 3.2 102350 40
2010-10-21 06:56:42 51°13.661 2°55.96 2.4 18 3.2 102350 40
2010-10-21 06:56:46 51°13.66 2°55.961 3.2 1 3.2 102350 40
2010-10-21 06:56:52 51°13.659 2°55.961 2 11 3.2 102350 40
2010-10-21 06:56:57 51°13.66 2°55.961 2.1 17 3.2 102350 40
2010-10-21 06:57:02 51°13.66 2°55.961 1.9 19 3.2 102350 40
2010-10-21 06:57:06 51°13.66 2°55.961 1.6 15 3.2 102350 40
2010-10-21 06:57:12 51°13.66 2°55.959 1.4 -999 3.2 102350 40
2010-10-21 06:57:17 51°13.66 2°55.958 0.5 360 3.2 102350 40
2010-10-21 06:57:22 51°13.66 2°55.958 0.1 10 3.2 102350 40
2010-10-21 06:57:26 51°13.66 2°55.958 0.1 4 3.2 102350 40
2010-10-21 06:57:31 51°13.66 2°55.958 -999 18 3.2 102350 40
2010-10-21 06:57:36 51°13.659 2°55.958 0.1 14 3.2 102350 40
2010-10-21 06:57:42 51°13.66 2°55.959 1.7 18 3.2 102350 40
2010-10-21 06:57:46 51°13.66 2°55.959 2.1 20 3.2 102360 40
2010-10-21 06:57:51 51°13.66 2°55.959 3.5 21 3.2 102360 40
2010-10-21 06:57:56 51°13.661 2°55.959 3.3 21 3.2 102360 40
2010-10-21 06:58:02 51°13.661 2°55.959 2.6 22 3.2 102360 40
2010-10-21 06:58:06 51°13.661 2°55.959 2.3 18 3.2 102350 41
2010-10-21 06:58:11 51°13.661 2°55.959 2 12 3.2 102350 41
2010-10-21 06:58:16 51°13.662 2°55.96 1.5 12 3.2 102360 40
2010-10-21 06:58:22 51°13.662 2°55.959 0.3 12 3.2 102360 40
2010-10-21 06:58:26 51°13.662 2°55.96 0.1 5 3.2 102350 40
2010-10-21 06:58:32 51°13.662 2°55.96 0.1 3 3.2 102350 40
2010-10-21 06:58:36 51°13.662 2°55.96 -999 1 3.2 102350 41
2010-10-21 06:58:42 51°13.662 2°55.96 -999 358 3.2 102350 41
2010-10-21 06:58:46 51°13.662 2°55.96 -999 6 3.2 102350 40
2010-10-21 06:58:51 51°13.662 2°55.96 0.1 6 3.2 102350 40
2010-10-21 06:58:56 51°13.662 2°55.96 2.5 15 3.2 102360 40
2010-10-21 06:59:02 51°13.662 2°55.96 1.7 19 3.2 102360 40
2010-10-21 06:59:06 51°13.662 2°55.96 2.3 11 3.2 102350 40
2010-10-21 06:59:11 51°13.662 2°55.96 2.5 12 3.2 102350 40
2010-10-21 06:59:17 51°13.662 2°55.96 2.8 12 3.2 102350 40
2010-10-21 06:59:22 51°13.662 2°55.96 2.6 15 3.2 102350 40
2010-10-21 06:59:26 51°13.662 2°55.96 2.8 17 3.2 102350 40
2010-10-21 06:59:31 51°13.662 2°55.96 2.7 15 3.2 102350 40
2010-10-21 06:59:36 51°13.662 2°55.96 2.2 5 3.2 102350 40
2010-10-21 06:59:42 51°13.662 2°55.96 0.9 10 3.2 102350 40
2010-10-21 06:59:46 51°13.662 2°55.96 1 4 3.2 102350 40
2010-10-21 06:59:51 51°13.662 2°55.96 0.2 14 3.2 102350 40
2010-10-21 06:59:56 51°13.662 2°55.96 0.1 4 3.2 102350 39
2010-10-21 07:00:02 51°13.662 2°55.96 0.3 12 3.2 102350 39
2010-10-21 07:00:06 51°13.662 2°55.96 0.1 18 3.2 102350 40
2010-10-21 07:00:11 51°13.662 2°55.96 0.1 353 3.2 102350 40
2010-10-21 07:00:16 51°13.662 2°55.96 2 2 3.2 102350 40
2010-10-21 07:00:22 51°13.662 2°55.96 1.6 1 3.2 102350 40
2010-10-21 07:00:26 51°13.662 2°55.96 0.4 14 3.2 102350 40
2010-10-21 07:00:31 51°13.662 2°55.96 3.3 8 3.2 102350 40
2010-10-21 07:00:36 51°13.662 2°55.96 3.3 15 3.2 102350 41
2010-10-21 07:00:42 51°13.662 2°55.96 3.6 20 3.2 102350 41
2010-10-21 07:00:46 51°13.662 2°55.96 3.6 13 3.2 102350 41
2010-10-21 07:00:51 51°13.662 2°55.96 3.2 10 3.2 102350 41
2010-10-21 07:00:56 51°13.662 2°55.96 2.3 4 3.2 102350 39
2010-10-21 07:01:02 51°13.662 2°55.96 2.1 20 3.2 102350 39
2010-10-21 07:01:06 51°13.661 2°55.96 2.8 7 3.2 102350 40
2010-10-21 07:01:12 51°13.661 2°55.96 2.5 10 3.2 102350 40
2010-10-21 07:01:16 51°13.661 2°55.96 2.7 18 3.2 102350 40
2010-10-21 07:01:22 51°13.661 2°55.961 3 15 3.2 102350 40
2010-10-21 07:01:26 51°13.661 2°55.961 3.5 11 3.2 102350 41
2010-10-21 07:01:31 51°13.661 2°55.961 3.2 9 3.2 102350 41
2010-10-21 07:01:36 51°13.661 2°55.961 3.2 8 3.2 102350 39
2010-10-21 07:01:42 51°13.661 2°55.961 2.4 11 3.2 102350 39
2010-10-21 07:01:46 51°13.661 2°55.961 3.2 13 3.1 102360 41
2010-10-21 07:01:51 51°13.661 2°55.961 2.8 11 3.1 102360 41
2010-10-21 07:01:57 51°13.661 2°55.961 2.5 9 3.2 102360 40
2010-10-21 07:02:02 51°13.661 2°55.961 2 4 3.2 102360 40
2010-10-21 07:02:07 51°13.661 2°55.961 3.5 10 3.2 102360 40
2010-10-21 07:02:12 51°13.661 2°55.961 2.4 15 3.2 102360 40
2010-10-21 07:02:17 51°13.661 2°55.961 2.4 15 3.1 102360 41
2010-10-21 07:02:22 51°13.66 2°55.961 2 12 3.1 102360 41
2010-10-21 07:02:26 51°13.66 2°55.961 2.1 9 3.1 102360 40
2010-10-21 07:02:31 51°13.66 2°55.961 2.3 17 3.1 102360 40
2010-10-21 07:02:37 51°13.661 2°55.961 2.8 11 3.1 102360 40
2010-10-21 07:02:42 51°13.661 2°55.961 1.8 8 3.1 102360 40
2010-10-21 07:02:46 51°13.661 2°55.961 1.4 8 3.1 102360 39
2010-10-21 07:02:51 51°13.661 2°55.961 2.7 13 3.1 102360 39
2010-10-21 07:02:56 51°13.661 2°55.961 2.4 11 3.1 102360 41
2010-10-21 07:03:02 51°13.661 2°55.961 2.8 8 3.1 102360 41
2010-10-21 07:03:06 51°13.661 2°55.961 3.2 5 3.1 102360 41
2010-10-21 07:03:11 51°13.661 2°55.961 2 3 3.1 102360 41
2010-10-21 07:03:16 51°13.661 2°55.961 1.2 7 3.1 102360 41
2010-10-21 07:03:22 51°13.661 2°55.961 2.1 7 3.1 102360 41
2010-10-21 07:03:26 51°13.661 2°55.961 0.6 14 3.1 102360 41
2010-10-21 07:03:32 51°13.661 2°55.961 0.3 11 3.1 102360 41
2010-10-21 07:03:36 51°13.661 2°55.961 0.9 4 3.2 102360 39
2010-10-21 07:03:42 51°13.661 2°55.961 0.5 13 3.2 102360 39
2010-10-21 07:03:46 51°13.661 2°55.96 1.9 8 3.1 102360 39
2010-10-21 07:03:51 51°13.661 2°55.96 3 7 3.1 102360 39
2010-10-21 07:03:57 51°13.661 2°55.96 2.7 18 3.2 102360 40
2010-10-21 07:04:02 51°13.661 2°55.96 2.2 16 3.2 102360 40
2010-10-21 07:04:06 51°13.661 2°55.96 2.2 8 3.1 102360 40
2010-10-21 07:04:11 51°13.661 2°55.96 1.4 15 3.1 102360 40
2010-10-21 07:04:17 51°13.661 2°55.96 1.2 2 3.1 102360 40
2010-10-21 07:04:22 51°13.661 2°55.96 1.5 14 3.1 102360 40
2010-10-21 07:04:26 51°13.661 2°55.96 1.3 9 3.1 102360 41
2010-10-21 07:04:31 51°13.661 2°55.96 1.1 358 3.1 102360 41
2010-10-21 07:04:36 51°13.661 2°55.96 1.3 4 3.2 102360 40
2010-10-21 07:04:42 51°13.661 2°55.96 1.7 360 3.2 102360 40
2010-10-21 07:04:46 51°13.661 2°55.96 2.3 8 3.2 102360 40
2010-10-21 07:04:51 51°13.661 2°55.96 3.6 6 3.2 102360 40
2010-10-21 07:04:57 51°13.661 2°55.96 2.9 3 3.2 102360 40
2010-10-21 07:05:02 51°13.661 2°55.96 1.8 13 3.2 102360 40
2010-10-21 07:05:06 51°13.661 2°55.96 2.4 12 3.2 102360 40
2010-10-21 07:05:11 51°13.661 2°55.96 3.5 17 3.2 102360 40
2010-10-21 07:05:16 51°13.661 2°55.96 3 15 3.2 102360 41
2010-10-21 07:05:22 51°13.661 2°55.96 3 10 3.2 102360 41
2010-10-21 07:05:26 51°13.661 2°55.96 2.2 18 3.2 102360 40
2010-10-21 07:05:32 51°13.662 2°55.96 2.8 26 3.2 102360 40
2010-10-21 07:05:36 51°13.662 2°55.96 2.3 8 3.2 102360 41
2010-10-21 07:05:42 51°13.662 2°55.96 1.9 9 3.2 102360 41
2010-10-21 07:05:46 51°13.662 2°55.96 2.5 15 3.2 102360 41
2010-10-21 07:05:51 51°13.662 2°55.96 2.4 26 3.2 102360 41
2010-10-21 07:05:57 51°13.662 2°55.96 1.9 21 3.2 102360 40
2010-10-21 07:06:02 51°13.662 2°55.96 0.6 9 3.2 102360 40
2010-10-21 07:06:06 51°13.662 2°55.96 0.2 1 3.2 102360 41
2010-10-21 07:06:11 51°13.662 2°55.96 1.2 11 3.2 102360 41
2010-10-21 07:06:16 51°13.662 2°55.96 2.8 4 3.2 102360 39
2010-10-21 07:06:22 51°13.662 2°55.96 3 18 3.2 102360 39
2010-10-21 07:06:26 51°13.662 2°55.96 4 14 3.2 102360 40
2010-10-21 07:06:31 51°13.662 2°55.96 2.2 26 3.2 102360 40
2010-10-21 07:06:36 51°13.662 2°55.96 2.2 4 3.2 102360 40
2010-10-21 07:06:42 51°13.662 2°55.96 1.4 359 3.2 102360 40
2010-10-21 07:06:46 51°13.662 2°55.96 1.5 6 3.2 102360 41
2010-10-21 07:06:52 51°13.662 2°55.96 2.3 15 3.2 102360 41
2010-10-21 07:06:56 51°13.662 2°55.96 1.9 17 3.2 102360 41
2010-10-21 07:07:02 51°13.662 2°55.96 1.8 2 3.2 102360 41
2010-10-21 07:07:06 51°13.662 2°55.96 2.2 5 3.2 102350 39
2010-10-21 07:07:11 51°13.662 2°55.96 1.1 358 3.2 102350 39
2010-10-21 07:07:16 51°13.662 2°55.96 0.1 6 3.2 102360 39
2010-10-21 07:07:22 51°13.662 2°55.96 2.3 3 3.2 102360 39
2010-10-21 07:07:26 51°13.662 2°55.96 2.9 17 3.2 102360 40
2010-10-21 07:07:32 51°13.662 2°55.96 1.7 15 3.2 102360 40
2010-10-21 07:07:36 51°13.662 2°55.96 1.4 13 3.2 102360 40
2010-10-21 07:07:42 51°13.662 2°55.96 1.4 11 3.2 102360 40
2010-10-21 07:07:46 51°13.662 2°55.96 2.3 13 3.2 102360 41
2010-10-21 07:07:51 51°13.662 2°55.96 2.5 10 3.2 102360 41
2010-10-21 07:07:57 51°13.662 2°55.96 3.6 11 3.2 102360 40
2010-10-21 07:08:02 51°13.662 2°55.96 3.9 11 3.2 102360 40
2010-10-21 07:08:06 51°13.662 2°55.96 3.8 12 3.2 102360 41
2010-10-21 07:08:11 51°13.662 2°55.96 2.7 18 3.2 102360 41
2010-10-21 07:08:17 51°13.662 2°55.96 2 15 3.2 102360 40
2010-10-21 07:08:22 51°13.662 2°55.96 2 13 3.2 102360 40
2010-10-21 07:08:26 51°13.662 2°55.96 1.8 7 3.2 102360 41
2010-10-21 07:08:31 51°13.662 2°55.961 1.7 9 3.2 102360 41
2010-10-21 07:08:36 51°13.662 2°55.961 2.3 26 3.2 102360 41
2010-10-21 07:08:42 51°13.662 2°55.96 2.8 8 3.2 102360 41
2010-10-21 07:08:46 51°13.662 2°55.96 1.8 11 3.2 102360 40
2010-10-21 07:08:51 51°13.662 2°55.96 1.9 15 3.2 102360 40
2010-10-21 07:08:56 51°13.662 2°55.96 1.3 21 3.2 102360 40
2010-10-21 07:09:02 51°13.662 2°55.961 1.8 25 3.2 102360 40
2010-10-21 07:09:06 51°13.662 2°55.961 1.8 8 3.3 102350 41
2010-10-21 07:09:12 51°13.662 2°55.961 2 4 3.3 102350 41
2010-10-21 07:09:16 51°13.662 2°55.961 2.5 10 3.3 102360 40
2010-10-21 07:09:22 51°13.662 2°55.961 1.8 8 3.3 102360 40
2010-10-21 07:09:26 51°13.662 2°55.961 2 6 3.3 102360 41
2010-10-21 07:09:31 51°13.662 2°55.961 1.6 23 3.3 102360 41
2010-10-21 07:09:36 51°13.662 2°55.961 2.3 8 3.3 102350 40
2010-10-21 07:09:42 51°13.662 2°55.961 1.4 15 3.3 102350 40
2010-10-21 07:09:47 51°13.662 2°55.961 2.4 17 3.3 102360 40
2010-10-21 07:09:52 51°13.662 2°55.961 2.4 8 3.3 102360 40
2010-10-21 07:09:57 51°13.662 2°55.961 2.4 10 3.3 102360 40
2010-10-21 07:10:02 51°13.662 2°55.961 2.8 10 3.3 102360 40
2010-10-21 07:10:06 51°13.662 2°55.961 2.6 9 3.3 102350 41
2010-10-21 07:10:12 51°13.662 2°55.961 2.5 5 3.3 102350 41
2010-10-21 07:10:17 51°13.662 2°55.961 2.3 359 3.3 102360 39
2010-10-21 07:10:22 51°13.662 2°55.961 1.3 9 3.3 102360 39
2010-10-21 07:10:26 51°13.662 2°55.961 0.2 14 3.3 102360 41
2010-10-21 07:10:31 51°13.662 2°55.961 2.3 9 3.3 102360 41
2010-10-21 07:10:37 51°13.662 2°55.961 2.5 8 3.3 102350 40
2010-10-21 07:10:42 51°13.662 2°55.961 2.9 9 3.3 102350 40
2010-10-21 07:10:46 51°13.662 2°55.961 2.9 11 3.3 102360 41
2010-10-21 07:10:50 51°13.662 2°55.961 2.9 13 3.3 102360 41
2010-10-21 07:10:57 51°13.662 2°55.961 2.1 5 3.3 102360 41
2010-10-21 07:11:02 51°13.662 2°55.961 1.1 5 3.3 102360 41
2010-10-21 07:11:06 51°13.662 2°55.961 1.3 6 3.3 102350 41
2010-10-21 07:11:11 51°13.662 2°55.961 1.7 23 3.3 102350 41
2010-10-21 07:11:17 51°13.662 2°55.961 1.4 9 3.3 102360 40
2010-10-21 07:11:22 51°13.662 2°55.961 3.1 22 3.3 102360 40
2010-10-21 07:11:26 51°13.662 2°55.961 3.2 18 3.3 102360 40
2010-10-21 07:11:31 51°13.662 2°55.961 3.3 5 3.3 102360 40
2010-10-21 07:11:36 51°13.662 2°55.961 1.9 10 3.3 102360 39
2010-10-21 07:11:42 51°13.662 2°55.961 2 6 3.3 102360 39
2010-10-21 07:11:46 51°13.662 2°55.961 2 9 3.3 102360 41
2010-10-21 07:11:51 51°13.662 2°55.961 2.5 11 3.3 102360 41
2010-10-21 07:11:56 51°13.662 2°55.961 2.9 24 3.3 102360 40
2010-10-21 07:12:02 51°13.662 2°55.961 2.1 13 3.3 102360 40
2010-10-21 07:12:06 51°13.662 2°55.961 1.9 17 3.3 102360 40
2010-10-21 07:12:12 51°13.662 2°55.961 2.5 16 3.3 102360 40
2010-10-21 07:12:16 51°13.662 2°55.961 2 28 3.3 102360 41
2010-10-21 07:12:22 51°13.662 2°55.961 1.7 360 3.3 102360 41
2010-10-21 07:12:26 51°13.662 2°55.961 1.7 6 3.3 102360 41
2010-10-21 07:12:32 51°13.662 2°55.961 2.1 9 3.3 102360 41
2010-10-21 07:12:36 51°13.662 2°55.961 1.4 18 3.3 102360 41
2010-10-21 07:12:42 51°13.662 2°55.961 2.6 12 3.3 102360 41
2010-10-21 07:12:46 51°13.662 2°55.961 2.6 9 3.3 102360 41
2010-10-21 07:12:51 51°13.662 2°55.961 2.1 18 3.3 102360 41
2010-10-21 07:12:56 51°13.662 2°55.96 2.2 16 3.4 102360 40
2010-10-21 07:13:02 51°13.662 2°55.96 1.2 14 3.4 102360 40
2010-10-21 07:13:06 51°13.662 2°55.96 0.9 5 3.4 102360 41
2010-10-21 07:13:11 51°13.662 2°55.96 0.1 14 3.4 102360 41
2010-10-21 07:13:17 51°13.662 2°55.96 0.1 25 3.4 102360 41
2010-10-21 07:13:22 51°13.662 2°55.96 -999 30 3.4 102360 41
2010-10-21 07:13:26 51°13.663 2°55.96 -999 25 3.3 102360 40
2010-10-21 07:13:31 51°13.663 2°55.96 1.6 30 3.3 102360 40
2010-10-21 07:13:36 51°13.663 2°55.96 1.7 29 3.4 102360 40
2010-10-21 07:13:42 51°13.663 2°55.959 0.1 31 3.4 102360 40
2010-10-21 07:13:46 51°13.663 2°55.959 0.1 10 3.3 102360 40
2010-10-21 07:13:51 51°13.663 2°55.959 0.1 8 3.3 102360 40
2010-10-21 07:13:56 51°13.663 2°55.959 0.1 40 3.4 102360 39
2010-10-21 07:14:02 51°13.663 2°55.959 -999 31 3.4 102360 39
2010-10-21 07:14:06 51°13.663 2°55.959 -999 25 3.3 102360 40
2010-10-21 07:14:11 51°13.663 2°55.959 0.2 4 3.3 102360 40
2010-10-21 07:14:17 51°13.663 2°55.959 0.9 3 3.3 102360 39
2010-10-21 07:14:22 51°13.662 2°55.959 2 16 3.3 102360 39
2010-10-21 07:14:26 51°13.662 2°55.959 2 12 3.3 102360 40
2010-10-21 07:14:32 51°13.662 2°55.959 2.2 12 3.3 102360 40
2010-10-21 07:14:36 51°13.662 2°55.959 2.2 14 3.3 102360 40
2010-10-21 07:14:42 51°13.662 2°55.959 1.1 5 3.3 102360 40
2010-10-21 07:14:46 51°13.662 2°55.959 0.7 349 3.4 102360 39
2010-10-21 07:14:52 51°13.662 2°55.959 0.1 25 3.4 102360 39
2010-10-21 07:14:56 51°13.662 2°55.958 0.4 20 3.4 102360 40
2010-10-21 07:15:02 51°13.662 2°55.958 0.1 12 3.4 102360 40
2010-10-21 07:15:06 51°13.662 2°55.958 0.1 16 3.4 102360 40
2010-10-21 07:15:11 51°13.662 2°55.958 1.4 20 3.4 102360 40
2010-10-21 07:15:16 51°13.661 2°55.959 1.4 27 3.4 102360 40
2010-10-21 07:15:22 51°13.661 2°55.958 1.3 15 3.4 102360 40
2010-10-21 07:15:26 51°13.661 2°55.958 1.2 18 3.4 102360 41
2010-10-21 07:15:31 51°13.662 2°55.959 2.2 358 3.4 102360 41
2010-10-21 07:15:36 51°13.662 2°55.959 1.6 1 3.4 102360 40
2010-10-21 07:15:42 51°13.663 2°55.959 0.4 14 3.4 102360 40
2010-10-21 07:15:46 51°13.663 2°55.96 0.1 25 3.4 102360 40
2010-10-21 07:15:51 51°13.663 2°55.96 0.1 19 3.4 102360 40
2010-10-21 07:15:56 51°13.663 2°55.96 -999 22 3.4 102360 41
2010-10-21 07:16:02 51°13.663 2°55.96 -999 25 3.4 102360 41
2010-10-21 07:16:06 51°13.663 2°55.959 -999 18 3.4 102360 40
2010-10-21 07:16:11 51°13.663 2°55.959 -999 12 3.4 102360 40
2010-10-21 07:16:16 51°13.663 2°55.959 -999 1 3.4 102360 40
2010-10-21 07:16:22 51°13.663 2°55.959 1.5 11 3.4 102360 40
2010-10-21 07:16:26 51°13.663 2°55.959 1.8 11 3.4 102360 40
2010-10-21 07:16:31 51°13.663 2°55.959 0.8 7 3.4 102360 40
2010-10-21 07:16:37 51°13.663 2°55.959 0.3 14 3.4 102360 40
2010-10-21 07:16:42 51°13.663 2°55.96 1.3 7 3.4 102360 40
2010-10-21 07:16:46 51°13.663 2°55.96 1.7 14 3.4 102360 40
2010-10-21 07:16:52 51°13.663 2°55.96 0.5 26 3.4 102360 40
2010-10-21 07:16:56 51°13.663 2°55.96 0.2 27 3.4 102360 39
2010-10-21 07:17:02 51°13.663 2°55.96 0.4 26 3.4 102360 39
2010-10-21 07:17:06 51°13.663 2°55.96 0.1 19 3.4 102360 40
2010-10-21 07:17:12 51°13.663 2°55.96 1.2 21 3.4 102360 40
2010-10-21 07:17:17 51°13.663 2°55.96 1.8 16 3.4 102360 41
2010-10-21 07:17:22 51°13.663 2°55.96 1.5 10 3.4 102360 41
2010-10-21 07:17:26 51°13.663 2°55.96 2.1 19 3.4 102360 40
2010-10-21 07:17:31 51°13.663 2°55.96 2.1 19 3.4 102360 40
2010-10-21 07:17:36 51°13.663 2°55.96 2.4 9 3.5 102360 41
2010-10-21 07:17:42 51°13.663 2°55.96 2 16 3.5 102360 41
2010-10-21 07:17:46 51°13.663 2°55.96 3.2 17 3.5 102360 40
2010-10-21 07:17:51 51°13.663 2°55.96 2.1 25 3.5 102360 40
2010-10-21 07:17:56 51°13.663 2°55.96 2.9 31 3.5 102360 41
2010-10-21 07:18:02 51°13.663 2°55.96 2.9 20 3.5 102360 41
2010-10-21 07:18:06 51°13.663 2°55.96 3.7 23 3.5 102360 41
2010-10-21 07:18:11 51°13.662 2°55.96 3.3 26 3.5 102360 41
2010-10-21 07:18:17 51°13.662 2°55.96 2.5 20 3.5 102360 39
2010-10-21 07:18:22 51°13.662 2°55.959 2.3 23 3.5 102360 39
2010-10-21 07:18:26 51°13.663 2°55.959 2.7 28 3.5 102360 39
2010-10-21 07:18:31 51°13.663 2°55.957 2.6 23 3.5 102360 39
2010-10-21 07:18:36 51°13.664 2°55.955 2.3 19 3.5 102360 41
2010-10-21 07:18:42 51°13.665 2°55.952 1.7 22 3.5 102360 41
2010-10-21 07:18:46 51°13.666 2°55.949 1.7 39 3.5 102360 41
2010-10-21 07:18:52 51°13.667 2°55.943 1.9 31 3.5 102360 41
2010-10-21 07:18:57 51°13.669 2°55.938 1.8 36 3.5 102360 40
2010-10-21 07:19:03 51°13.671 2°55.93 1.1 42 3.5 102360 40
2010-10-21 07:19:08 51°13.673 2°55.922 2.2 33 3.5 102360 39
2010-10-21 07:19:14 51°13.676 2°55.912 5.5 36 3.5 102360 39
2010-10-21 07:19:20 51°13.678 2°55.902 5.2 22 3.5 102360 40
2010-10-21 07:19:25 51°13.68 2°55.892 4.8 45 3.5 102360 40
2010-10-21 07:19:30 51°13.682 2°55.882 4.7 41 3.5 102360 40
2010-10-21 07:19:35 51°13.683 2°55.872 4 57 3.5 102360 40
2010-10-21 07:19:40 51°13.685 2°55.861 5.1 45 3.5 102360 38
2010-10-21 07:19:45 51°13.686 2°55.851 3.6 56 3.5 102360 38
2010-10-21 07:19:50 51°13.688 2°55.841 3.4 24 3.5 102350 40
2010-10-21 07:19:55 51°13.689 2°55.83 4.3 42 3.5 102350 40
2010-10-21 07:20:00 51°13.69 2°55.821 4.3 41 3.5 102350 39
2010-10-21 07:20:05 51°13.691 2°55.812 3.5 38 3.5 102350 39
2010-10-21 07:20:10 51°13.692 2°55.803 3.4 40 3.5 102350 41
2010-10-21 07:20:15 51°13.693 2°55.794 3.5 80 3.5 102350 41
2010-10-21 07:20:20 51°13.694 2°55.785 3.6 42 3.5 102360 39
2010-10-21 07:20:25 51°13.694 2°55.777 3.3 44 3.5 102360 39
2010-10-21 07:20:30 51°13.694 2°55.769 2.9 24 3.5 102360 41
2010-10-21 07:20:35 51°13.694 2°55.761 3.9 57 3.5 102360 41
2010-10-21 07:20:40 51°13.695 2°55.754 3.5 21 3.5 102350 41
2010-10-21 07:20:45 51°13.695 2°55.749 3.9 56 3.5 102350 41
2010-10-21 07:20:50 51°13.695 2°55.746 3.1 19 3.6 102360 41
2010-10-21 07:20:54 51°13.695 2°55.745 2.2 44 3.6 102360 41
2010-10-21 07:20:59 51°13.695 2°55.744 2.5 20 3.6 102350 40
2010-10-21 07:21:04 51°13.696 2°55.743 1.7 56 3.6 102350 40
2010-10-21 07:21:09 51°13.696 2°55.743 0.4 20 3.6 102360 40
2010-10-21 07:21:14 51°13.697 2°55.744 1 31 3.6 102360 40
2010-10-21 07:21:18 51°13.697 2°55.744 0.4 18 3.6 102360 41
2010-10-21 07:21:23 51°13.698 2°55.745 0.1 56 3.6 102360 41
2010-10-21 07:21:28 51°13.7 2°55.746 0.1 20 3.6 102360 40
2010-10-21 07:21:34 51°13.701 2°55.747 0.1 53 3.6 102360 40
2010-10-21 07:21:38 51°13.702 2°55.748 1.1 22 3.6 102360 40
2010-10-21 07:21:43 51°13.703 2°55.748 1.3 53 3.6 102360 40
2010-10-21 07:21:47 51°13.704 2°55.748 2.4 22 3.6 102360 40
2010-10-21 07:21:53 51°13.703 2°55.748 1.1 56 3.6 102360 40
2010-10-21 07:21:58 51°13.702 2°55.747 0.3 20 3.6 102360 41
2010-10-21 07:22:02 51°13.701 2°55.746 0.8 53 3.6 102360 41
2010-10-21 07:22:07 51°13.7 2°55.745 2.8 26 3.6 102350 39
2010-10-21 07:22:12 51°13.698 2°55.744 3.3 81 3.6 102350 39
2010-10-21 07:22:17 51°13.697 2°55.743 4.2 21 3.7 102360 39
2010-10-21 07:22:22 51°13.696 2°55.742 3.2 39 3.7 102360 39
2010-10-21 07:22:27 51°13.696 2°55.742 2.4 20 3.7 102360 40
2010-10-21 07:22:33 51°13.697 2°55.742 1.7 310 3.7 102360 40
2010-10-21 07:22:38 51°13.699 2°55.741 0.3 267 3.8 102360 40
2010-10-21 07:22:45 51°13.703 2°55.739 0.2 263 3.8 102360 40
2010-10-21 07:22:50 51°13.707 2°55.737 0.1 263 3.8 102360 40
2010-10-21 07:22:54 51°13.71 2°55.734 0.1 307 3.8 102360 40
2010-10-21 07:22:59 51°13.715 2°55.731 0.1 247 3.8 102360 40
2010-10-21 07:23:04 51°13.72 2°55.726 3.2 310 3.8 102360 40
2010-10-21 07:23:09 51°13.726 2°55.721 2.9 258 3.8 102360 40
2010-10-21 07:23:14 51°13.733 2°55.715 3.3 254 3.8 102360 40
2010-10-21 07:23:19 51°13.739 2°55.709 3.4 257 3.8 102360 41
2010-10-21 07:23:24 51°13.747 2°55.702 3.3 309 3.8 102360 41
2010-10-21 07:23:29 51°13.755 2°55.695 2.8 22 3.8 102360 41
2010-10-21 07:23:34 51°13.764 2°55.687 3.4 32 3.8 102360 41
2010-10-21 07:23:38 51°13.771 2°55.68 2.7 19 3.8 102360 40
2010-10-21 07:23:43 51°13.781 2°55.672 1.3 306 3.8 102360 40
2010-10-21 07:23:48 51°13.792 2°55.664 2.3 317 3.8 102360 40
2010-10-21 07:23:54 51°13.805 2°55.654 2.9 311 3.8 102360 40
2010-10-21 07:23:58 51°13.814 2°55.647 2.2 321 3.8 102360 39
2010-10-21 07:24:03 51°13.825 2°55.638 1.9 311 3.8 102360 39
2010-10-21 07:24:08 51°13.837 2°55.629 4.1 21 3.8 102360 39
2010-10-21 07:24:13 51°13.849 2°55.621 3.2 311 3.8 102360 39
2010-10-21 07:24:18 51°13.861 2°55.611 2.4 319 3.8 102360 39
2010-10-21 07:24:23 51°13.874 2°55.602 1.6 309 3.8 102360 39
2010-10-21 07:24:28 51°13.886 2°55.593 0.9 27 3.8 102360 39
2010-10-21 07:24:33 51°13.899 2°55.583 4.1 308 3.8 102360 39
2010-10-21 07:24:37 51°13.909 2°55.575 3.9 26 3.8 102360 40
2010-10-21 07:24:42 51°13.922 2°55.566 4.1 31 3.8 102360 40
2010-10-21 07:24:47 51°13.935 2°55.556 3.7 245 3.8 102360 40
2010-10-21 07:24:52 51°13.948 2°55.546 3.4 309 3.8 102360 40
2010-10-21 07:24:58 51°13.964 2°55.534 3.3 26 3.8 102350 38
2010-10-21 07:25:03 51°13.977 2°55.524 2.8 33 3.8 102350 38
2010-10-21 07:25:09 51°13.993 2°55.512 3.6 21 3.9 102350 41
2010-10-21 07:25:14 51°14.007 2°55.503 3.1 307 3.9 102350 41
2010-10-21 07:25:19 51°14.021 2°55.493 2.8 321 3.9 102360 41
2010-10-21 07:25:24 51°14.035 2°55.483 2 305 3.9 102360 41
2010-10-21 07:25:29 51°14.048 2°55.473 2.9 319 3.9 102350 41
2010-10-21 07:25:34 51°14.062 2°55.463 2.2 304 3.9 102350 41
2010-10-21 07:25:38 51°14.073 2°55.454 3.3 321 3.9 102360 41
2010-10-21 07:25:43 51°14.087 2°55.444 2.9 309 3.9 102360 41
2010-10-21 07:25:48 51°14.101 2°55.433 3.4 321 3.9 102360 41
2010-10-21 07:25:54 51°14.118 2°55.421 4.6 331 3.9 102360 41
2010-10-21 07:25:58 51°14.129 2°55.412 3.9 318 3.9 102360 41
2010-10-21 07:26:04 51°14.146 2°55.398 4 310 3.9 102360 41
2010-10-21 07:26:09 51°14.16 2°55.387 4.4 25 3.9 102360 39
2010-10-21 07:26:14 51°14.174 2°55.374 3 322 3.9 102360 39
2010-10-21 07:26:20 51°14.19 2°55.359 3.2 320 3.9 102360 40
2010-10-21 07:26:25 51°14.204 2°55.347 4.4 30 3.9 102360 40
2010-10-21 07:26:30 51°14.217 2°55.333 4.6 22 4 102360 40
2010-10-21 07:26:35 51°14.231 2°55.32 4 302 4 102360 40
2010-10-21 07:26:40 51°14.245 2°55.307 4.1 316 4 102360 41
2010-10-21 07:26:45 51°14.259 2°55.294 5.7 309 4 102360 41
2010-10-21 07:26:50 51°14.273 2°55.28 3.9 25 4 102350 41
2010-10-21 07:26:55 51°14.287 2°55.267 4 309 4 102350 41
2010-10-21 07:27:00 51°14.301 2°55.253 4.3 20 4.1 102360 40
2010-10-21 07:27:05 51°14.315 2°55.238 5.9 30 4.1 102360 40
2010-10-21 07:27:10 51°14.329 2°55.223 5.3 20 4.1 102350 40
2010-10-21 07:27:14 51°14.34 2°55.212 4.4 280 4.1 102350 40
2010-10-21 07:27:19 51°14.355 2°55.197 5.5 21 4.1 102350 40
2010-10-21 07:27:24 51°14.37 2°55.184 4.2 308 4.1 102350 40
2010-10-21 07:27:30 51°14.387 2°55.167 6.1 22 4.2 102350 41
2010-10-21 07:27:34 51°14.399 2°55.156 7.3 310 4.2 102350 41
2010-10-21 07:27:39 51°14.414 2°55.14 6.9 24 4.2 102350 40
2010-10-21 07:27:44 51°14.428 2°55.126 7.1 304 4.2 102350 40
2010-10-21 07:27:49 51°14.443 2°55.111 8.2 25 4.3 102350 42
2010-10-21 07:27:54 51°14.458 2°55.095 8 310 4.3 102350 42
2010-10-21 07:27:58 51°14.469 2°55.083 7 22 4.4 102360 41
2010-10-21 07:28:03 51°14.484 2°55.068 7.3 307 4.4 102360 41
2010-10-21 07:28:08 51°14.499 2°55.052 7.7 24 4.5 102340 42
2010-10-21 07:28:14 51°14.517 2°55.035 8.2 307 4.5 102340 42
2010-10-21 07:28:18 51°14.53 2°55.023 7.2 25 4.6 102340 41
2010-10-21 07:28:23 51°14.544 2°55.006 7.5 307 4.6 102340 41
2010-10-21 07:28:27 51°14.556 2°54.993 7 21 4.7 102340 41
2010-10-21 07:28:33 51°14.574 2°54.973 7.7 308 4.7 102340 41
2010-10-21 07:28:38 51°14.588 2°54.957 8.1 25 4.7 102340 40
2010-10-21 07:28:42 51°14.599 2°54.943 7.5 310 4.7 102340 40
2010-10-21 07:28:47 51°14.614 2°54.927 6.7 20 4.8 102330 40
2010-10-21 07:28:52 51°14.628 2°54.91 8.1 308 4.8 102330 40
2010-10-21 07:28:57 51°14.642 2°54.893 9.5 24 4.8 102340 40
2010-10-21 07:29:02 51°14.656 2°54.876 10 33 4.8 102340 40